Arlington, TX

2:02 PM CDT on March 26, 2017 (GMT -0500)
Arlington Municipal

Weather History for KGKY - December, 2013

Change the Weather History Date:

Tuesday, December 31, 2013

  Actual Average (KRBD) Record (KRBD)
Temperature  
Mean Temperature 38 °F -  
Max Temperature 53 °F 54 °F 73 °F (2004)
Min Temperature 23 °F 35 °F 26 °F (2000)
Degree Days  
Heating Degree Days 27    
Moisture  
Dew Point 23 °F    
Average Humidity 59    
Maximum Humidity 85    
Minimum Humidity 34    
Precipitation  
Precipitation 0.00 in - - ()
Sea Level Pressure  
Sea Level Pressure 30.35 in    
Wind  
Wind Speed 4 mph (SSE)    
Max Wind Speed 12 mph    
Max Gust Speed -    
Visibility 10 miles    
Events      
Averages and records for this station are not official NWS values.
T = Trace of Precipitation, MM = Missing Value Source: NWS Daily Summary

Daily Weather History Graph

Daily Weather History Graph

Search for Another Location

Airport or City:

Trip Planner

Search our weather history database for the weather conditions in past years. The results will help you decide how hot, cold, wet, or windy it might be!

Date:

Astronomy

Dec. 31, 2013 Rise Set
Actual Time 7:30 AM CST 5:32 PM CST
Civil Twilight 7:03 AM CST 6:00 PM CST
Nautical Twilight 6:32 AM CST 6:30 PM CST
Astronomical Twilight 6:02 AM CST 7:00 PM CST
Moon 6:26 AM CST (12/31) 5:07 PM CST (12/31)
Length of Visible Light 10h 56m
Length of Day
10h 02m
Waning Crescent, 1% of the Moon is Illuminated
Dec 31
Waning Crescent
Jan 1
New
Jan 7
First Quarter
Jan 15
Full
Jan 23
Last Quarter

Hourly Weather History & Observations

Time (CST) Temp. Windchill Dew Point Humidity Pressure Visibility Wind Dir Wind Speed Gust Speed Precip Events Conditions
12:53 AM 28.9 °F 22.8 °F 19.9 °F 69% 30.41 in 10.0 mi NNW 5.8 mph - N/A   Clear
1:53 AM 26.1 °F - 19.9 °F 78% 30.41 in 10.0 mi Calm Calm - N/A   Clear
2:53 AM 26.1 °F - 19.9 °F 78% 30.42 in 10.0 mi Calm Calm - N/A   Clear
3:53 AM 24.1 °F 19.7 °F 19.9 °F 84% 30.42 in 10.0 mi SSW 3.5 mph - N/A   Clear
4:53 AM 25.0 °F 20.7 °F 19.9 °F 81% 30.41 in 10.0 mi NW 3.5 mph - N/A   Clear
5:53 AM 25.0 °F - 19.9 °F 81% 30.42 in 10.0 mi Calm Calm - N/A   Clear
6:53 AM 25.0 °F 20.7 °F 19.9 °F 81% 30.44 in 10.0 mi WSW 3.5 mph - N/A   Clear
7:53 AM 23.0 °F - 19.0 °F 85% 30.45 in 10.0 mi Calm Calm - N/A   Clear
8:53 AM 32.0 °F - 24.1 °F 73% 30.43 in 10.0 mi Calm Calm - N/A   Clear
9:53 AM 39.9 °F 37.8 °F 21.9 °F 49% 30.44 in 10.0 mi SE 3.5 mph - N/A   Clear
10:53 AM 44.1 °F 41.5 °F 21.9 °F 42% 30.44 in 10.0 mi ESE 4.6 mph - N/A   Clear
11:53 AM 46.9 °F - 21.9 °F 37% 30.42 in 10.0 mi South 6.9 mph - N/A   Clear
12:53 PM 48.9 °F - 21.9 °F 35% 30.36 in 10.0 mi SE 9.2 mph - N/A   Clear
1:53 PM 51.1 °F - 25.0 °F 36% 30.33 in 10.0 mi South 8.1 mph - N/A   Clear
2:53 PM 53.1 °F - 25.0 °F 34% 30.30 in 10.0 mi SE 11.5 mph - N/A   Clear
3:53 PM 53.1 °F - 25.0 °F 34% 30.28 in 10.0 mi SE 10.4 mph - N/A   Clear
4:53 PM 52.0 °F - 26.1 °F 37% 30.29 in 10.0 mi SSE 9.2 mph - N/A   Clear
5:53 PM 46.9 °F - 27.0 °F 46% 30.27 in 10.0 mi SSE 5.8 mph - N/A   Clear
6:53 PM 44.1 °F 41.5 °F 27.0 °F 51% 30.27 in 10.0 mi SE 4.6 mph - N/A   Clear
7:53 PM 42.1 °F - 27.0 °F 55% 30.27 in 10.0 mi Calm Calm - N/A   Clear
8:53 PM 37.0 °F 33.3 °F 26.1 °F 65% 30.26 in 10.0 mi SE 4.6 mph - N/A   Clear
9:53 PM 37.9 °F 32.7 °F 26.1 °F 62% 30.23 in 10.0 mi SSE 6.9 mph - N/A   Clear
10:53 PM 41.0 °F 34.3 °F 28.0 °F 60% 30.22 in 10.0 mi SSE 11.5 mph - N/A   Clear
11:53 PM 37.9 °F 30.9 °F 28.9 °F 70% 30.21 in 10.0 mi SSE 10.4 mph - N/A   Clear